DW9396 Weather Reports


Display with metric or nautical units.
time (UTC)temp
F
wind
direction
speed
MPH
gust
MPH
rain 1hr
in
rain 24hr
in
rain mn
in
humidity
%
barometer
mb
20260903063038 52 138 0.0 0.0 0.00 0.00 0.00 80 1014.6
20260903061550 53 138 0.0 1.0 0.00 0.00 0.00 80 1014.7
20260903060041 53 138 0.0 0.0 0.00 0.00 0.00 79 1014.8
20260903054541 54 138 0.0 1.0 0.00 0.00 0.00 78 1014.8
20260903053038 54 145 0.0 1.0 0.00 0.00 0.00 77 1014.9
20260903051537 55 145 0.0 1.0 0.00 0.00 0.00 77 1014.8
20260903050037 55 137 0.0 1.0 0.00 0.00 0.00 76 1014.8
20260903044540 56 98 0.0 1.0 0.00 0.00 0.00 75 1014.8
20260903043042 56 98 0.0 1.0 0.00 0.00 0.00 74 1014.7
20260903041536 57 50 0.0 0.0 0.00 0.00 0.00 73 1014.7
20260903040035 58 50 0.0 1.0 0.00 0.00 0.00 71 1014.6
20260903034543 58 50 0.0 1.0 0.00 0.00 0.00 71 1014.4
20260903033037 59 50 0.0 0.0 0.00 0.00 0.00 70 1014.3
20260903031543 59 50 0.0 0.0 0.00 0.00 0.00 69 1014.2
20260903030037 60 50 0.0 0.0 0.00 0.00 0.00 67 1014.2
20260903024533 62 49 0.0 0.0 0.00 0.00 0.00 65 1014.1
20260903023032 63 23 0.0 0.0 0.00 0.00 0.00 63 1014.1
20260903021532 64 23 0.0 1.0 0.00 0.00 0.00 60 1014.1
20260903020047 65 23 0.0 0.0 0.00 0.00 0.00 58 1014.2
20260903014536 66 105 0.0 1.0 0.00 0.00 0.00 57 1014.2
20260903013034 67 356 0.0 2.0 0.00 0.00 0.00 56 1014.3
20260903011539 68 319 0.0 4.0 0.00 0.00 0.00 53 1014.2
20260903010034 69 339 0.0 2.0 0.00 0.00 0.00 50 1014.2
20260903004528 70 273 1.0 4.0 0.00 0.00 0.00 49 1014.3
20260903003028 70 205 0.0 5.0 0.00 0.00 0.00 49 1014.3
20260903001528 70 289 0.0 4.0 0.00 0.00 0.00 49 1014.3
20260903000027 71 326 1.0 4.0 0.00 0.00 0.00 47 1014.3
20260902234527 71 17 1.0 5.0 0.00 0.00 0.00 45 1014.3
20260902233027 72 5 1.0 4.0 0.00 0.00 0.00 44 1014.4
20260902231529 72 198 1.0 5.0 0.00 0.00 0.00 44 1014.5
20260902230026 73 338 0.0 4.0 0.00 0.00 0.00 42 1014.6
20260902224527 74 70 1.0 4.0 0.00 0.00 0.00 39 1014.6
20260902223029 74 16 0.0 4.0 0.00 0.00 0.00 38 1014.6
20260902221527 73 293 1.0 4.0 0.00 0.00 0.00 41 1014.8
20260902220030 75 346 1.0 3.0 0.00 0.00 0.00 37 1015.0
20260902214523 76 346 1.0 4.0 0.00 0.00 0.00 36 1015.1
20260902213028 77 228 1.0 4.0 0.00 0.00 0.00 33 1015.0
20260902211522 76 32 1.0 3.0 0.00 0.00 0.00 39 1015.1
20260902210021 74 349 1.0 4.0 0.00 0.00 0.00 39 1015.1
20260902204519 74 198 0.0 3.0 0.00 0.00 0.00 39 1015.3
20260902203019 74 354 0.0 4.0 0.00 0.00 0.00 40 1015.4
20260902201522 74 138 1.0 5.0 0.00 0.00 0.00 35 1015.5
20260902200017 74 271 1.0 3.0 0.00 0.00 0.00 39 1015.7
20260902194522 75 191 0.0 3.0 0.00 0.00 0.00 38 1015.9
20260902193016 75 295 0.0 2.0 0.00 0.00 0.00 40 1016.0
20260902191515 74 297 1.0 3.0 0.00 0.00 0.00 41 1016.0
20260902190011 73 293 1.0 4.0 0.00 0.00 0.00 42 1016.0
20260902184512 73 288 0.0 2.0 0.00 0.00 0.00 43 1016.0
20260902183008 72 190 0.0 2.0 0.00 0.00 0.00 46 1016.1
20260902181504 70 304 1.0 4.0 0.00 0.00 0.00 48 1016.2
20260902180100 68 300 0.0 2.0 0.00 0.00 0.00 49 1016.1
20260902174559 67 298 1.0 3.0 0.00 0.00 0.00 53 1016.1
20260902173057 67 334 1.0 2.0 0.00 0.00 0.00 53 1016.0
20260902171605 65 127 0.0 3.0 0.00 0.00 0.00 55 1016.1
20260902170048 64 187 0.0 1.0 0.00 0.00 0.00 59 1016.1
20260902164544 63 188 0.0 1.0 0.00 0.00 0.00 58 1016.1
20260902163040 61 187 0.0 1.0 0.00 0.00 0.00 64 1016.0
20260902161537 61 188 0.0 1.0 0.00 0.00 0.00 65 1015.9
20260902160037 58 142 0.0 1.0 0.00 0.00 0.00 71 1015.9
20260902154533 55 142 0.0 1.0 0.00 0.00 0.00 74 1016.0
20260902153032 54 142 0.0 0.0 0.00 0.00 0.00 75 1016.1
20260902151525 52 142 0.0 1.0 0.00 0.00 0.00 78 1016.1
20260902150023 50 141 0.0 2.0 0.00 0.00 0.00 82 1016.1
20260902144518 48 136 0.0 2.0 0.00 0.00 0.00 83 1016.3
20260902143017 46 132 0.0 1.0 0.00 0.00 0.00 85 1016.1
20260902141515 45 133 1.0 1.0 0.00 0.00 0.00 86 1015.9
20260902140013 45 148 2.0 3.0 0.00 0.00 0.00 86 1015.6
20260902134515 44 134 0.0 1.0 0.00 0.00 0.00 88 1015.5
20260902133012 44 134 0.0 1.0 0.00 0.00 0.00 87 1015.3
20260902131512 44 134 0.0 0.0 0.00 0.00 0.00 87 1014.9
20260902130010 44 134 0.0 1.0 0.00 0.00 0.00 87 1014.9
20260902124511 44 134 0.0 0.0 0.00 0.00 0.00 87 1014.8
20260902123020 44 134 0.0 1.0 0.00 0.00 0.00 87 1014.7
20260902121508 44 134 0.0 1.0 0.00 0.00 0.00 86 1014.6
20260902120007 44 134 0.0 2.0 0.00 0.00 0.00 87 1014.6
20260902114504 44 138 0.0 2.0 0.00 0.00 0.00 86 1014.7
20260902113002 44 138 1.0 2.0 0.00 0.00 0.00 87 1015.0
20260902111606 44 142 0.0 1.0 0.00 0.00 0.00 86 1015.0
20260902110107 45 142 1.0 2.0 0.00 0.00 0.00 87 1015.0
20260902104609 44 133 0.0 1.0 0.00 0.00 0.00 87 1015.1
20260902103056 44 132 0.0 0.0 0.00 0.00 0.00 87 1015.1
20260902101555 45 133 0.0 1.0 0.00 0.00 0.00 86 1015.0
20260902100053 45 133 1.0 2.0 0.00 0.00 0.00 86 1014.9
20260902094554 45 132 0.0 0.0 0.00 0.00 0.00 87 1014.8
20260902093052 45 133 0.0 0.0 0.00 0.00 0.00 86 1015.0
20260902091555 45 132 0.0 0.0 0.00 0.00 0.00 86 1014.8
20260902090049 46 132 0.0 1.0 0.00 0.00 0.00 85 1014.8
20260902084550 46 133 0.0 2.0 0.00 0.00 0.00 85 1014.8
20260902083049 46 142 0.0 1.0 0.00 0.00 0.00 85 1014.9
20260902081542 47 142 0.0 1.0 0.00 0.00 0.00 85 1014.8
20260902080057 47 142 0.0 1.0 0.00 0.00 0.00 85 1015.0
20260902074541 47 144 0.0 1.0 0.00 0.00 0.00 84 1014.8
20260902073039 47 143 0.0 1.0 0.00 0.00 0.00 84 1014.8
20260902071538 48 144 0.0 2.0 0.00 0.00 0.00 84 1014.6
20260902070036 48 150 0.0 1.0 0.00 0.00 0.00 84 1014.6
20260902064534 48 56 0.0 0.0 0.00 0.00 0.00 83 1014.6